Location: Perryvale
(54.4667°N, 113.3833°W)
Time: 04:08:08
(UTC+00:00)

Explorer 7 - Visible Passes

Search period start: 24 May 2024 00:00
Search period end: 03 June 2024 00:00
Orbit: 467 x 625 km, 50.3° (Epoch: 23 May)

Date Brightness Start Highest point End Pass type
(mag) Time Alt. Az. Time Alt. Az. Time Alt. Az.
24 May 7.8 06:09:49 21° SSE 06:10:02 21° SSE 06:13:04 10° E visible
24 May 7.0 07:45:28 10° WSW 07:49:08 43° S 07:53:00 10° E visible
24 May 7.1 09:24:44 10° W 09:28:30 41° S 09:32:26 10° ESE visible
25 May 7.6 05:59:57 10° SSW 06:03:05 25° SSE 06:06:18 10° E visible
25 May 6.9 07:38:34 10° WSW 07:42:14 45° S 07:46:07 10° ESE visible
25 May 7.2 09:17:54 10° W 09:21:35 38° SSW 09:25:27 10° SE visible
26 May 7.4 05:52:51 10° SW 05:56:07 28° SSE 05:59:29 10° E visible
26 May 6.9 07:31:39 10° WSW 07:35:20 46° S 07:39:12 10° ESE visible
26 May 7.3 09:11:03 10° W 09:14:39 35° SSW 09:18:25 10° SE visible
27 May 7.3 05:45:47 10° SW 05:49:08 31° SSE 05:52:38 10° E visible
27 May 6.9 07:24:44 10° WSW 07:28:24 46° S 07:32:15 10° ESE visible
27 May 7.5 09:04:12 10° W 09:07:42 31° SSW 09:11:21 10° SE visible
28 May 7.2 05:38:44 10° SW 05:42:10 35° SSE 05:45:44 10° E visible
28 May 6.9 07:17:48 10° WSW 07:21:27 45° S 07:25:17 10° ESE visible
28 May 7.6 08:57:20 10° W 09:00:42 27° SSW 09:04:11 10° SE visible
29 May 7.1 05:31:42 10° SW 05:35:11 38° SSE 05:38:48 10° E visible
29 May 6.9 07:10:52 10° W 07:14:29 43° S 07:18:17 10° ESE visible
29 May 7.8 08:50:30 10° W 08:53:41 24° SSW 08:56:58 10° SSE visible
30 May 7.0 05:24:40 10° WSW 05:28:11 41° S 05:31:50 10° E visible
30 May 7.0 07:03:55 10° W 07:07:30 41° S 07:11:15 10° ESE visible
30 May 8.0 08:43:42 10° WSW 08:46:37 20° SSW 08:47:43 18° S visible
31 May 6.9 05:17:38 10° WSW 05:21:11 43° S 05:24:51 10° ESE visible
31 May 7.1 06:56:57 10° W 07:00:29 38° SSW 07:03:36 13° SE visible
31 May 8.3 08:36:56 10° WSW 08:39:04 17° SW 08:39:04 17° SW visible
01 Jun 6.9 05:10:37 10° WSW 05:14:09 44° S 05:17:50 10° ESE visible
01 Jun 7.3 06:49:59 10° W 06:53:27 34° SSW 06:55:47 18° SE visible
01 Jun 8.7 08:30:17 10° WSW 08:31:16 13° SW 08:31:16 13° SW visible
02 Jun 6.9 05:03:34 10° WSW 05:07:07 44° S 05:10:47 10° ESE visible
02 Jun 7.4 06:43:01 10° W 06:46:22 31° SSW 06:48:15 20° SSE visible
